Weather in Zdvinsk

Russia / Novosibirsk Oblast     54°42′08″N   78°39′42″E
temp.,
°C
wind,
m/s
gust,
m/s
humid.,
%
clouds,
%
prec.,
mm/h
press.,
hPa
HPBL,
m
27 february, sat
sat2701:00−27sw4997100 0.1 1035260
04:00−27sw4797100 0.0 1035233
07:00−29sw3598100 0.1 1036105
10:00−30sw3698100 0.0 1036137
13:00−26sw3596100 0.0 1036259
16:00−25ssw349387 0.0 1037315
19:00−28ssw349673 0.0 103736
22:00−30s33970 0.0 103727
28 february, sun
sun2801:00−30s34980 0.0 103640
04:00−30sse349936 0.0 103544
07:00−30sse349639 0.0 103453
10:00−27se489558 0.0 1032177
13:00−22se589179 0.0 1029267
16:00−18se6990100 0.0 1027353
19:00−16ese51094100 0.1 1023384
22:00−14ese61194100 0.1 1019278
1 march, mon
mon101:00−10ese61195100 0.6 1015396
04:00−8ese71195100 1.6 1010421
07:00−5e5996100 3.5 1006341
10:00−2s1799100 1.3 1005350
13:000sw71299100 2.1 1004751
16:000sw71298100 1.4 1004719
19:000wsw81295100 2.6 1005779
22:00−8wsw599597 0.2 1008305
2 march, tue
tue201:00−13wnw479698 0.3 1010170
04:00−16wnw469798 0.1 1014120
07:00−19wnw349899 0.1 101657
10:00−19w3498100 0.0 101795
13:00−16wsw339299 0.1 1018306
16:00−14sw2492100 0.0 1018356
19:00−16ssw1296100 0.1 101720
22:00−16se2297100 0.1 101725
3 march, wed
wed301:00−17se129799 0.3 101620
04:00−16e1197100 0.3 101520
07:00−16e1197100 0.7 101520
10:00−16wnw119693 0.2 101638
13:00−14w228991 0.3 1017352
16:00−13wsw3490100 0.0 1019490
19:00−16sw2396100 0.1 102020
22:00−19ssw339872 0.0 102225